SCP
-0 -0 -0 -0 -0 -0 -0 -0 0 0 0 0 0 0 0 0 0 0 0 0 0 0 0 0 0 0 0 0 0 0 0 0
0 0 -0 -0 -0 -0 -0 0 0 0 0 0 0 0 0 0 0 0 0 0 0 0 0 0 0 0 0 0 0 0 0 0
0 0 0 -0 -0 -0 0 0 0 0 0 0 0 0 0 0 0 0 0 0 0 0 0 0 0 0 0 0 0 0 0 0
0 0 0 -0 -0 -0 -0 0 0 0 0 0 0 0 0 0 0 0 0 0 0 0 0 0 0 0 0 0 0 0 0 0
0 0 -0 -0 -0 -0 -0 0 0 0 0 0 0 0 0 0 0 0 0 0 0 0 0 0 0 0 0 0 0 0 0 0
0 0 0 0 -0 0 0 -0 0 0 0 0 0 0 0 0 0 0 0 0 0 0 0 0 0 0 0 0 0 0 0 0
0 0 0 0 0 0 0 0 0 0 0 0 0 0 0 0 0 0 0 0 0 0 0 0 0 0 0 0 0 0 0 0
1 -0 0 0 0 -0 0 0 0 0 0 0 0 0 0 0 0 0 0 0 0 0 0 0 0 0 0 0 0 0 0 0
0 0 0 0 0 0 0 0 0 0 0 0 0 0 0 0 0 0 0 0 0 0 0 -0 0 0 0 0 0 0 0 0
0 0 0 0 0 0 0 0 0 0 0 0 0 0 0 0 0 0 0 0 0 0 -0 0 0 0 0 0 0 0 0 0
0 0 0 0 0 0 0 0 0 0 0 0 0 0 0 0 0 0 0 0 0 -0 0 0 0 0 0 0 0 0 0 0
0 0 0 0 0 0 0 0 0 0 0 0 0 0 0 0 0 0 0 0 0 -0 0 0 0 0 0 0 0 0 0 0
0 0 0 0 0 0 0 0 0 0 0 0 0 0 0 0 0 0 0 0 -0 -0 0 0 0 0 0 0 0 0 0 0
0 0 0 0 0 0 0 0 0 0 0 0 0 0 0 0 0 0 0 0 0 0 0 0 0 0 0 0 0 0 0 0
0 0 0 0 0 0 0 0 0 0 0 0 0 0 0 0 0 0 0 0 0 0 0 0 0 0 0 0 0 0 0 0
0 0 0 0 0 0 0 0 0 0 0 0 0 0 0 0 0 0 0 0 0 0 0 0 0 0 0 0 0 0 0 0
0 0 0 0 0 0 0 0 0 0 0 0 0 0 0 -0 0 0 0 0 0 0 0 0 0 0 0 0 0 0 0 0
0 0 0 0 0 0 0 0 0 0 0 0 0 0 0 0 0 0 0 0 0 0 0 0 0 0 0 0 0 0 0 0
0 0 0 0 0 0 0 0 0 0 0 0 -0 -0 0 0 0 0 0 0 0 0 0 0 0 0 0 0 0 0 0 0
0 0 0 0 0 0 0 0 0 0 0 0 -0 -0 0 0 0 0 0 0 0 0 0 0 0 0 0 0 0 0 0 0
Wind_Speed_500mb
54 60 66 67 66 63 58 53 48 44 41 36 34 29 27 25 21 19 16 12 10 8 6 6 3 1 5 8 8 9 11 15
53 62 67 66 65 63 60 55 51 47 44 39 35 31 28 26 23 19 15 14 15 13 9 8 9 8 7 9 11 14 17 21
54 60 66 67 67 65 61 58 56 50 46 41 36 31 28 26 23 20 17 15 15 14 12 11 10 12 10 14 16 21 26 30
57 57 62 69 73 71 65 62 60 54 47 41 37 33 30 29 25 20 16 16 15 13 15 14 15 12 24 20 23 30 33 36
46 59 68 69 72 71 70 64 59 54 47 41 37 34 33 29 25 21 17 16 15 14 15 18 17 18 21 22 28 38 43 40
46 46 44 52 65 68 65 66 61 54 47 42 39 36 32 28 25 21 17 15 16 14 14 16 16 18 23 27 36 43 41 35
41 47 47 52 60 66 68 66 65 56 50 44 39 36 32 28 25 20 18 15 14 15 13 15 17 22 28 30 35 37 31 29
40 44 47 59 64 66 73 67 63 58 52 43 38 34 30 28 24 17 17 14 14 12 13 16 21 27 29 37 41 37 29 23
25 35 48 59 66 70 69 67 63 58 49 42 36 32 30 26 22 21 20 16 16 15 16 20 25 28 29 39 31 14 15 19
23 37 45 52 60 66 65 64 59 57 50 42 36 32 29 27 25 21 19 17 14 14 19 20 23 13 24 18 15 11 15 16
24 31 39 46 57 62 61 59 61 59 50 42 37 35 31 26 23 18 17 15 12 13 18 16 14 9 9 13 14 15 19 16
22 28 34 43 51 54 54 60 63 57 52 42 39 36 31 26 22 20 18 14 12 13 12 13 8 4 6 11 17 22 25 20
25 24 33 41 48 52 56 61 64 56 47 42 38 33 31 28 21 20 15 12 11 10 6 4 5 6 7 15 17 19 21 24
23 29 37 44 51 54 58 62 59 53 46 42 38 33 29 27 23 22 18 13 10 6 3 2 8 7 9 19 28 29 24 20
31 42 43 50 53 57 59 60 55 49 42 41 39 32 32 29 27 22 11 12 8 4 2 4 7 9 17 26 28 17 30 19
37 42 48 57 65 60 58 55 50 44 43 45 38 34 32 29 23 18 15 11 8 7 3 3 6 14 24 27 15 19 14 18
39 46 55 61 61 60 56 51 48 46 44 40 36 34 29 26 21 15 12 12 10 9 5 5 10 24 25 26 23 14 16 19
54 63 68 61 57 56 53 50 49 46 41 39 37 32 29 24 18 14 14 12 10 5 2 4 8 15 13 13 15 16 17 20
54 67 67 60 56 53 53 51 50 45 38 44 35 30 27 23 17 15 12 9 7 4 2 5 11 7 11 13 14 15 19 21
66 58 61 56 52 54 52 51 47 43 43 39 31 26 26 23 19 18 12 9 7 4 2 7 17 11 12 13 14 16 19 21
Wind_Direction_500mb
183 183 185 185 183 181 182 180 182 182 186 188 184 181 182 184 188 191 188 199 206 204 220 229 245 208 207 236 252 276 288 293
188 183 186 186 184 181 181 180 182 182 186 185 186 183 185 187 189 195 202 210 217 224 236 233 231 242 255 263 271 280 285 290
195 189 185 184 183 183 182 180 181 183 185 185 185 184 184 188 191 197 206 213 219 222 240 251 240 248 265 264 277 286 289 292
194 194 189 187 186 184 183 180 182 183 185 186 183 183 186 191 193 194 205 212 223 232 247 244 251 255 261 271 286 294 292 294
211 199 192 191 188 183 183 181 181 183 184 183 181 184 187 194 193 189 201 216 225 233 250 243 253 264 271 284 292 296 298 294
206 189 214 203 188 186 181 180 182 181 183 182 182 184 190 193 193 193 206 223 237 247 258 246 254 268 281 290 294 297 298 294
206 189 193 199 197 188 179 181 181 182 183 182 181 185 187 192 194 201 213 230 235 243 249 244 260 277 290 299 301 304 299 292
220 203 208 191 192 189 182 179 180 181 184 179 180 182 186 189 190 202 212 225 239 229 238 260 277 290 297 295 297 303 296 297
222 192 188 192 185 185 182 178 181 179 177 174 175 178 183 183 182 193 208 216 215 220 246 267 278 285 289 301 309 321 296 308
213 193 182 189 182 181 180 178 174 173 170 169 169 175 173 180 179 189 199 206 210 232 260 273 284 282 301 324 330 328 328 329
209 192 177 178 177 177 178 171 168 168 164 166 168 170 174 177 172 183 185 195 199 245 272 291 301 301 309 344 346 338 340 339
204 187 178 173 173 174 175 167 165 163 164 165 167 171 175 171 170 182 184 193 231 264 278 301 312 328 352 347 336 341 340 341
201 179 183 174 169 170 169 164 163 163 161 164 169 177 171 170 166 184 188 235 247 264 301 308 321 306 316 339 337 328 326 317
212 191 185 172 167 169 162 162 162 161 163 168 170 174 170 169 179 187 198 230 246 249 201 164 335 316 336 347 342 342 354 30
201 191 180 169 166 162 161 160 162 164 164 167 168 164 164 172 174 182 203 212 204 188 197 335 343 345 350 347 351 16 17 24
190 182 172 168 162 157 160 161 160 160 163 164 161 162 165 170 173 183 191 179 146 150 199 345 350 352 351 350 28 20 351 353
182 172 165 163 159 156 159 159 157 159 162 158 158 163 170 172 175 185 192 169 162 162 126 352 357 0 3 7 27 4 354 350
173 167 162 162 160 157 158 155 154 157 157 159 159 167 173 170 173 181 169 161 155 165 225 328 335 335 332 335 344 350 350 346
168 161 158 160 157 156 154 153 151 155 158 155 157 165 169 169 167 167 166 161 152 150 238 306 348 33 351 347 347 346 346 343
158 153 159 159 155 154 152 152 152 155 156 158 157 163 163 164 164 160 157 154 139 122 3 12 55 19 357 354 348 343 340 341
Wind_Speed_850mb
54 60 66 67 66 63 58 53 48 44 41 36 34 29 27 25 21 19 16 12 10 8 6 6 3 1 5 8 8 9 11 15
53 62 67 66 65 63 60 55 51 47 44 39 35 31 28 26 23 19 15 14 15 13 9 8 9 8 7 9 11 14 17 21
54 60 66 67 67 65 61 58 56 50 46 41 36 31 28 26 23 20 17 15 15 14 12 11 10 12 10 14 16 21 26 30
57 57 62 69 73 71 65 62 60 54 47 41 37 33 30 29 25 20 16 16 15 13 15 14 15 12 24 20 23 30 33 36
46 59 68 69 72 71 70 64 59 54 47 41 37 34 33 29 25 21 17 16 15 14 15 18 17 18 21 22 28 38 43 40
46 46 44 52 65 68 65 66 61 54 47 42 39 36 32 28 25 21 17 15 16 14 14 16 16 18 23 27 36 43 41 35
41 47 47 52 60 66 68 66 65 56 50 44 39 36 32 28 25 20 18 15 14 15 13 15 17 22 28 30 35 37 31 29
40 44 47 59 64 66 73 67 63 58 52 43 38 34 30 28 24 17 17 14 14 12 13 16 21 27 29 37 41 37 29 23
25 35 48 59 66 70 69 67 63 58 49 42 36 32 30 26 22 21 20 16 16 15 16 20 25 28 29 39 31 14 15 19
23 37 45 52 60 66 65 64 59 57 50 42 36 32 29 27 25 21 19 17 14 14 19 20 23 13 24 18 15 11 15 16
24 31 39 46 57 62 61 59 61 59 50 42 37 35 31 26 23 18 17 15 12 13 18 16 14 9 9 13 14 15 19 16
22 28 34 43 51 54 54 60 63 57 52 42 39 36 31 26 22 20 18 14 12 13 12 13 8 4 6 11 17 22 25 20
25 24 33 41 48 52 56 61 64 56 47 42 38 33 31 28 21 20 15 12 11 10 6 4 5 6 7 15 17 19 21 24
23 29 37 44 51 54 58 62 59 53 46 42 38 33 29 27 23 22 18 13 10 6 3 2 8 7 9 19 28 29 24 20
31 42 43 50 53 57 59 60 55 49 42 41 39 32 32 29 27 22 11 12 8 4 2 4 7 9 17 26 28 17 30 19
37 42 48 57 65 60 58 55 50 44 43 45 38 34 32 29 23 18 15 11 8 7 3 3 6 14 24 27 15 19 14 18
39 46 55 61 61 60 56 51 48 46 44 40 36 34 29 26 21 15 12 12 10 9 5 5 10 24 25 26 23 14 16 19
54 63 68 61 57 56 53 50 49 46 41 39 37 32 29 24 18 14 14 12 10 5 2 4 8 15 13 13 15 16 17 20
54 67 67 60 56 53 53 51 50 45 38 44 35 30 27 23 17 15 12 9 7 4 2 5 11 7 11 13 14 15 19 21
66 58 61 56 52 54 52 51 47 43 43 39 31 26 26 23 19 18 12 9 7 4 2 7 17 11 12 13 14 16 19 21
Wind_Direction_850mb
183 183 185 185 183 181 182 180 182 182 186 188 184 181 182 184 188 191 188 199 206 204 220 229 245 208 207 236 252 276 288 293
188 183 186 186 184 181 181 180 182 182 186 185 186 183 185 187 189 195 202 210 217 224 236 233 231 242 255 263 271 280 285 290
195 189 185 184 183 183 182 180 181 183 185 185 185 184 184 188 191 197 206 213 219 222 240 251 240 248 265 264 277 286 289 292
194 194 189 187 186 184 183 180 182 183 185 186 183 183 186 191 193 194 205 212 223 232 247 244 251 255 261 271 286 294 292 294
211 199 192 191 188 183 183 181 181 183 184 183 181 184 187 194 193 189 201 216 225 233 250 243 253 264 271 284 292 296 298 294
206 189 214 203 188 186 181 180 182 181 183 182 182 184 190 193 193 193 206 223 237 247 258 246 254 268 281 290 294 297 298 294
206 189 193 199 197 188 179 181 181 182 183 182 181 185 187 192 194 201 213 230 235 243 249 244 260 277 290 299 301 304 299 292
220 203 208 191 192 189 182 179 180 181 184 179 180 182 186 189 190 202 212 225 239 229 238 260 277 290 297 295 297 303 296 297
222 192 188 192 185 185 182 178 181 179 177 174 175 178 183 183 182 193 208 216 215 220 246 267 278 285 289 301 309 321 296 308
213 193 182 189 182 181 180 178 174 173 170 169 169 175 173 180 179 189 199 206 210 232 260 273 284 282 301 324 330 328 328 329
209 192 177 178 177 177 178 171 168 168 164 166 168 170 174 177 172 183 185 195 199 245 272 291 301 301 309 344 346 338 340 339
204 187 178 173 173 174 175 167 165 163 164 165 167 171 175 171 170 182 184 193 231 264 278 301 312 328 352 347 336 341 340 341
201 179 183 174 169 170 169 164 163 163 161 164 169 177 171 170 166 184 188 235 247 264 301 308 321 306 316 339 337 328 326 317
212 191 185 172 167 169 162 162 162 161 163 168 170 174 170 169 179 187 198 230 246 249 201 164 335 316 336 347 342 342 354 30
201 191 180 169 166 162 161 160 162 164 164 167 168 164 164 172 174 182 203 212 204 188 197 335 343 345 350 347 351 16 17 24
190 182 172 168 162 157 160 161 160 160 163 164 161 162 165 170 173 183 191 179 146 150 199 345 350 352 351 350 28 20 351 353
182 172 165 163 159 156 159 159 157 159 162 158 158 163 170 172 175 185 192 169 162 162 126 352 357 0 3 7 27 4 354 350
173 167 162 162 160 157 158 155 154 157 157 159 159 167 173 170 173 181 169 161 155 165 225 328 335 335 332 335 344 350 350 346
168 161 158 160 157 156 154 153 151 155 158 155 157 165 169 169 167 167 166 161 152 150 238 306 348 33 351 347 347 346 346 343
158 153 159 159 155 154 152 152 152 155 156 158 157 163 163 164 164 160 157 154 139 122 3 12 55 19 357 354 348 343 340 341